CZ-6A DEB, 60716

Orbit data source: Space-Track

CZ-6A DEB, 60716 is space debris in LEO originally from a launch on Tue, 06 Aug 2024 UTC launched from the Taiyaun Space Center, China (TSC). Debris objects in space refer to the collection of defunct objects orbiting the Earth. Examples of debris include non-operational satellites, rocket bodies, and fragments generated from explosions, collisions, or faulty payload assembly.

Loading next visibility...
Identifier
60716, 2024-140DV
Orbit
LEO
Country
Flag of CNCN / PRC
Related business
Manufacturer
SAST
Mission
Spacecraft
Bus & Motor
Unknown
Mass
Unknown
Launch date (UTC)
2024-08-06 (2 years ago)
Launch vehicle
Unknown
Launch site
Taiyaun Space Center, China (TSC)
Object type
Payload
Rocket body
Debris
Shape & HBR
Unknown shape, 0.2 m
Radar Cross Section
Medium (>0.1 m² and <1 m²)

Expand to show TLE details & history
Last TLE update: 12 hours ago

TLE from 12 hours ago
0 CZ-6A DEB
1 60716U 24140DV  26171.35152758  .00000530  00000-0  96409-4 0  9994
2 60716  89.0888 276.6615 0132085 202.4791 157.0603 14.59029867 98730
Epoch: 2026-06-20T08:26Z
TLE epoch observation values (Epoch: 2026-06-20T08:26:11.982Z)
Latitude
-0.00004°
Longitude
-118.45582°
Altitude
785.674 km
Speed
7.415 km/s
True Right ascension
18h 26m 38s
True Declination
0° 00' 00"
Sunlit
Object was in full shadow at epoch
Visualization orbit readout
Latitude
Unknown
Longitude
Unknown
Altitude
Unknown
Speed
Unknown
Apparent Right ascension
Unknown
Apparent Declination
Unknown
Sunlit
N/A
Visualization observer readout
Local Sidereal Time
07:19:47
Azimuth
Unknown
Elevation
Unknown
Doppler factor
Unknown
Orbital elements
Apogee altitude
786.604 km
Perigee altitude
599.801 km
Semi-major axis
7,071.339 km
Eccentricity
0.01321
Inclination
89.0888°
RAAN
276.6615°
Arg. of periapsis
202.4791°
True anomaly
157.64139°
Mean anomaly
157.0603°
Eccentric anomaly
157.35172°
Mean motion
3.64998 °/min
Orbital period
98.63 mins
BSTAR
0.000096409
Loading maneuver chart data...
Computing Atmospheric mass density...
Loading historical data...
Loading historical data...
Loading historical data...
Loading historical data...
Loading historical data...
Loading historical data...
Loading historical data...

Documentation

Showing up to 5 results
|